Location: Newark
(22.3145°N, 88.6625°E)
Time: 03:06:21
(UTC+00:00)

Envisat - Pass Details

Date: 27 September 2019
Orbit: 764 x 766 km, 98.1° (Epoch: 18 October)

Event Time Altitude Azimuth Distance (km) Brightness Sun altitude
Rises 13:15:48 0° 195° (SSW) 3,218 6.3 -19.0°
Reaches altitude 10° 13:18:29 10° 209° (SSW) 2,294 5.7 -19.6°
Maximum altitude 13:22:32 24° 262° (W) 1,537 5.3 -20.5°
Drops below altitude 10° 13:26:36 10° 316° (NW) 2,300 6.2 -21.4°
Sets 13:29:19 0° 330° (NNW) 3,228 6.8 -22.1°
